INTELSAT 14 (IS-14)

Last updated on Thu Oct 30 2025 00:02:48 GMT+0000 (Coordinated Universal Time)

1 36097U 09064A 25302.46215100 -.00000264 00000+0 00000+0 0 9996 2 36097 0.0065 71.4852 0002472 151.6818 296.2792 1.00269422 58297
UTC large
Height (km)
Speed (km/s)
/
Latitude / Longitude
Inclination (degrees)
Orbital Period (minutes)
Azimuth
Elevation
Range (km)
Doppler Factor

Next 0 passes for location: London (51.5072 / 0.1276)

Sorry there are no passes over London.